| time (UTC) | temp C | wind direction | speed KPH | gust KPH | rain 1hr cm | rain 24hr cm | rain mn cm | humidity % | barometer mb |
| 20260504000120 | 23 | 27 | 11.3 | 22.5 | 0.00 | 0.00 | 0.00 | 26 | 1010.5 |
| 20260503234920 | 23 | 35 | 11.3 | 25.7 | 0.00 | 0.00 | 0.00 | 27 | 1010.6 |
| 20260503233757 | 24 | 34 | 12.9 | 19.3 | 0.00 | 0.00 | 0.00 | 27 | 1010.6 |
| 20260503232520 | 24 | 52 | 14.5 | 22.5 | 0.00 | 0.00 | 0.00 | 26 | 1010.8 |
| 20260503231325 | 25 | 40 | 11.3 | 22.5 | 0.00 | 0.00 | 0.00 | 25 | 1010.7 |
| 20260503230125 | 24 | 356 | 11.3 | 16.1 | 0.00 | 0.00 | 0.00 | 25 | 1010.7 |
| 20260503224920 | 24 | 357 | 12.9 | 22.5 | 0.00 | 0.00 | 0.00 | 25 | 1011.0 |
| 20260503223725 | 23 | 347 | 14.5 | 22.5 | 0.00 | 0.00 | 0.00 | 26 | 1011.1 |
| 20260503222540 | 24 | 6 | 11.3 | 19.3 | 0.00 | 0.00 | 0.00 | 26 | 1011.3 |
| 20260503221322 | 24 | 61 | 3.2 | 9.7 | 0.00 | 0.00 | 0.00 | 25 | 1011.6 |
| 20260503220117 | 24 | 77 | 8.0 | 16.1 | 0.00 | 0.00 | 0.00 | 26 | 1011.8 |
| 20260503214937 | 24 | 65 | 8.0 | 16.1 | 0.00 | 0.00 | 0.00 | 25 | 1011.9 |
| 20260503213743 | 23 | 328 | 9.7 | 19.3 | 0.00 | 0.00 | 0.00 | 26 | 1012.1 |
| 20260503212523 | 23 | 325 | 8.0 | 16.1 | 0.00 | 0.00 | 0.00 | 26 | 1012.2 |
| 20260503211317 | 23 | 286 | 16.1 | 29.0 | 0.00 | 0.00 | 0.00 | 27 | 1012.5 |
| 20260503210122 | 23 | 75 | 6.4 | 12.9 | 0.00 | 0.00 | 0.00 | 27 | 1012.4 |
| 20260503204943 | 22 | 33 | 9.7 | 16.1 | 0.00 | 0.00 | 0.00 | 28 | 1012.5 |
| 20260503203722 | 22 | 8 | 8.0 | 12.9 | 0.00 | 0.00 | 0.00 | 31 | 1012.7 |
| 20260503202518 | 22 | 24 | 8.0 | 12.9 | 0.00 | 0.00 | 0.00 | 33 | 1012.8 |
| 20260503201323 | 22 | 70 | 6.4 | 12.9 | 0.00 | 0.00 | 0.00 | 34 | 1013.0 |
| 20260503200122 | 21 | 332 | 11.3 | 19.3 | 0.00 | 0.00 | 0.00 | 35 | 1013.2 |
| 20260503194917 | 22 | 317 | 8.0 | 12.9 | 0.00 | 0.00 | 0.00 | 35 | 1013.4 |
| 20260503193723 | 21 | 346 | 6.4 | 12.9 | 0.00 | 0.00 | 0.00 | 35 | 1013.4 |
| 20260503192534 | 21 | 316 | 11.3 | 19.3 | 0.00 | 0.00 | 0.00 | 36 | 1013.6 |
| 20260503191323 | 20 | 351 | 8.0 | 9.7 | 0.00 | 0.00 | 0.00 | 36 | 1013.8 |
| 20260503190117 | 20 | 78 | 4.8 | 12.9 | 0.00 | 0.00 | 0.00 | 36 | 1014.0 |
| 20260503184923 | 20 | 3 | 9.7 | 16.1 | 0.00 | 0.00 | 0.00 | 39 | 1014.0 |
| 20260503183717 | 20 | 317 | 12.9 | 22.5 | 0.00 | 0.00 | 0.00 | 39 | 1014.1 |
| 20260503182522 | 19 | 323 | 9.7 | 16.1 | 0.00 | 0.00 | 0.00 | 40 | 1014.2 |
| 20260503181318 | 18 | 348 | 6.4 | 12.9 | 0.00 | 0.00 | 0.00 | 41 | 1014.2 |
| 20260503180125 | 18 | 4 | 6.4 | 9.7 | 0.00 | 0.00 | 0.00 | 42 | 1014.4 |
| 20260503174918 | 18 | 336 | 8.0 | 12.9 | 0.00 | 0.00 | 0.00 | 43 | 1014.5 |
| 20260503173723 | 17 | 15 | 9.7 | 16.1 | 0.00 | 0.00 | 0.00 | 44 | 1014.4 |
| 20260503172518 | 17 | 348 | 6.4 | 16.1 | 0.00 | 0.00 | 0.00 | 44 | 1014.5 |
| 20260503171323 | 17 | 332 | 9.7 | 19.3 | 0.00 | 0.00 | 0.00 | 44 | 1014.5 |
| 20260503170117 | 17 | 329 | 12.9 | 16.1 | 0.00 | 0.00 | 0.00 | 45 | 1014.6 |
| 20260503160122 | 15 | 339 | 6.4 | 9.7 | 0.00 | 0.00 | 0.00 | 48 | 1014.8 |
| 20260503150143 | 13 | 302 | 3.2 | 9.7 | 0.00 | 0.00 | 0.00 | 49 | 1014.8 |
| 20260503140117 | 12 | 0.0 | 0.0 | 0.00 | 0.00 | 0.00 | 51 | 1014.7 | |
| 20260503131322 | 11 | 0.0 | 0.0 | 0.00 | 0.00 | 0.00 | 53 | 1014.2 | |
| 20260503130117 | 11 | 0.0 | 0.0 | 0.00 | 0.00 | 0.00 | 52 | 1014.2 | |
| 20260503120122 | 11 | 228 | 3.2 | 6.4 | 0.00 | 0.00 | 0.00 | 54 | 1014.5 |
| 20260503110117 | 12 | 237 | 3.2 | 3.2 | 0.00 | 0.00 | 0.00 | 53 | 1014.4 |
| 20260503100137 | 12 | 124 | 6.4 | 6.4 | 0.00 | 0.00 | 0.00 | 52 | 1014.2 |
| 20260503081227 | 15 | 29 | 1.6 | 3.2 | 0.00 | 0.00 | 0.00 | 46 | 1014.5 |
| 20260503072431 | 15 | 0.0 | 0.0 | 0.00 | 0.00 | 0.00 | 47 | 1014.3 | |
| 20260503071251 | 13 | 348 | 3.2 | 6.4 | 0.00 | 0.00 | 0.00 | 48 | 1014.5 |
| 20260503054839 | 14 | 0.0 | 0.0 | 0.00 | 0.00 | 0.00 | 51 | 1015.0 | |
| 20260503053631 | 15 | 325 | 0.0 | 3.2 | 0.00 | 0.00 | 0.00 | 49 | 1014.9 |
| 20260503052427 | 14 | 260 | 1.6 | 3.2 | 0.00 | 0.00 | 0.00 | 50 | 1015.2 |
| 20260503051227 | 14 | 226 | 3.2 | 3.2 | 0.00 | 0.00 | 0.00 | 51 | 1015.1 |
| 20260503050027 | 15 | 0.0 | 0.0 | 0.00 | 0.00 | 0.00 | 49 | 1014.8 | |
| 20260503044827 | 15 | 305 | 3.2 | 6.4 | 0.00 | 0.00 | 0.00 | 51 | 1014.7 |
| 20260503043647 | 15 | 301 | 3.2 | 6.4 | 0.00 | 0.00 | 0.00 | 51 | 1015.0 |
| 20260503042427 | 15 | 306 | 8.0 | 12.9 | 0.00 | 0.00 | 0.00 | 52 | 1014.8 |
| 20260503041231 | 15 | 327 | 9.7 | 16.1 | 0.00 | 0.00 | 0.00 | 53 | 1014.3 |
| 20260503040032 | 15 | 353 | 9.7 | 12.9 | 0.00 | 0.00 | 0.00 | 53 | 1014.2 |
| 20260503034827 | 15 | 2 | 9.7 | 12.9 | 0.00 | 0.00 | 0.00 | 52 | 1014.3 |
| 20260503033627 | 15 | 346 | 6.4 | 9.7 | 0.00 | 0.00 | 0.00 | 51 | 1014.0 |
| 20260503032427 | 15 | 345 | 8.0 | 16.1 | 0.00 | 0.00 | 0.00 | 51 | 1013.9 |
| 20260503031226 | 15 | 1 | 4.8 | 6.4 | 0.00 | 0.00 | 0.00 | 51 | 1013.8 |
| 20260503030027 | 16 | 311 | 11.3 | 16.1 | 0.00 | 0.00 | 0.00 | 50 | 1013.6 |
| 20260503024827 | 15 | 313 | 12.9 | 19.3 | 0.00 | 0.00 | 0.00 | 51 | 1013.5 |
| 20260503023628 | 15 | 4 | 9.7 | 12.9 | 0.00 | 0.00 | 0.00 | 51 | 1013.5 |
| 20260503022432 | 16 | 307 | 14.5 | 19.3 | 0.00 | 0.00 | 0.00 | 49 | 1013.6 |
| 20260503021232 | 16 | 9 | 12.9 | 19.3 | 0.00 | 0.00 | 0.00 | 48 | 1013.2 |
| 20260503020128 | 17 | 8 | 16.1 | 22.5 | 0.00 | 0.00 | 0.00 | 45 | 1013.1 |
| 20260503014852 | 17 | 290 | 24.1 | 35.4 | 0.00 | 0.00 | 0.00 | 44 | 1013.0 |
| 20260503013704 | 17 | 320 | 12.9 | 25.7 | 0.00 | 0.00 | 0.00 | 44 | 1012.8 |
| 20260503012427 | 17 | 328 | 12.9 | 25.7 | 0.00 | 0.00 | 0.00 | 45 | 1012.7 |
| 20260503011227 | 17 | 342 | 14.5 | 22.5 | 0.00 | 0.00 | 0.00 | 45 | 1012.7 |
| 20260503010031 | 17 | 331 | 16.1 | 25.7 | 0.00 | 0.00 | 0.00 | 46 | 1013.0 |
| 20260503004832 | 17 | 345 | 6.4 | 16.1 | 0.00 | 0.00 | 0.00 | 48 | 1013.0 |
| 20260503003652 | 16 | 358 | 12.9 | 25.7 | 0.00 | 0.00 | 0.00 | 49 | 1012.8 |
| 20260503002432 | 16 | 299 | 9.7 | 16.1 | 0.00 | 0.00 | 0.00 | 49 | 1012.9 |
| 20260503001231 | 16 | 331 | 9.7 | 12.9 | 0.00 | 0.00 | 0.00 | 48 | 1012.9 |